This is the latest recevied weather packets stored in our database for station/object KL1SF-7. If no packets are shown the sender has not sent any weather packets the latest 10 day(s).
| Time | Temp. | Humidity | Pressure | Rain* | Wind** | Luminosity | Snow |
|---|---|---|---|---|---|---|---|
| 1777734820 | 12.22° C | 16% | 1021.7 hPa | 0 mm | - | - | - |
| 1777734213 | 12.22° C | 16% | 1021.5 hPa | 0 mm | - | - | - |
| 1777733634 | 12.22° C | 16% | 1021.9 hPa | 0 mm | - | - | - |
| 1777733002 | 11.67° C | 17% | 1021.9 hPa | 0 mm | - | - | - |
| 1777732415 | 11.67° C | 17% | 1021.9 hPa | 0 mm | - | - | - |
| 1777731800 | 10.56° C | 17% | 1021.5 hPa | 0 mm | - | - | - |
| 1777731213 | 10.56° C | 18% | 1021.5 hPa | 0 mm | - | - | - |
| 1777730625 | 10° C | 18% | 1021.6 hPa | 0 mm | - | - | - |
| 1777730010 | 9.44° C | 19% | 1021.1 hPa | 0 mm | - | - | - |
| 1777729422 | 8.33° C | 21% | 1021.1 hPa | 0 mm | - | - | - |
| 1777728815 | 7.78° C | 22% | 1020.6 hPa | 0 mm | - | - | - |
| 1777728219 | 7.22° C | 23% | 1020.5 hPa | 0 mm | - | - | - |
| 1777727609 | 6.67° C | 23% | 1020.5 hPa | 0 mm | - | - | - |
| 1777727022 | 6.11° C | 23% | 1020.9 hPa | 0 mm | - | - | - |
| 1777726402 | 6.11° C | 24% | 1020.7 hPa | 0 mm | - | - | - |
| 1777725812 | 6.11° C | 23% | 1020.7 hPa | 0 mm | - | - | - |
| 1777725228 | 6.67° C | 22% | 1020.5 hPa | 0 mm | - | - | - |
| 1777724613 | 6.67° C | 22% | 1020.5 hPa | 0 mm | - | - | - |
| 1777724002 | 6.67° C | 22% | 1020.5 hPa | 0 mm | - | - | - |
| 1777723418 | 7.22° C | 22% | 1019.9 hPa | 0 mm | - | - | - |
| 1777722819 | 7.22° C | 21% | 1020.3 hPa | 0 mm | - | - | - |
| 1777722209 | 6.67° C | 21% | 1020.3 hPa | 0 mm | - | - | - |
| 1777721622 | 6.67° C | 22% | 1020.3 hPa | 0 mm | - | - | - |
| 1777721006 | 6.67° C | 21% | 1019.9 hPa | 0 mm | - | - | - |
| 1777720419 | 7.22° C | 21% | 1019.9 hPa | 0 mm | - | - | - |
* Rain since midnight (hover to see other rain measurements)
** Current wind speed in m/s (hover to see current wind gust speed)